Wetbulb
41.83 41.94 43.21 45.03 46.77 48.75 50.25 51.74 54.26 58.12 59.84 59.85 59.89 59.53 59.18 58.76 58.57 58.50 57.86 57.06 56.55 55.86
40.63 41.91 43.13 44.01 45.36 47.88 50.10 51.66 53.06 54.70 59.23 59.26 59.02 58.96 58.95 58.57 58.09 57.99 57.87 57.37 56.81 55.87
39.68 41.02 42.72 45.08 46.14 48.30 50.73 51.10 52.22 55.00 58.45 58.41 58.47 58.36 58.20 57.76 57.60 56.93 56.51 56.29 55.44 54.25
38.26 39.40 41.52 42.78 44.19 45.92 47.12 48.69 49.90 51.41 51.18 50.49 50.93 52.65 54.71 53.76 54.26 50.67 48.46 48.27 47.50 46.37
37.01 37.94 38.47 39.39 41.12 42.91 42.96 43.42 44.50 45.81 46.06 46.20 46.82 47.86 47.52 46.70 47.18 45.11 44.07 43.63 43.26 42.67
35.22 35.95 36.73 37.29 38.74 40.05 40.66 40.78 41.26 41.57 41.71 42.05 42.82 44.03 43.81 43.07 42.12 40.76 40.04 39.39 39.07 39.10
33.84 34.58 35.65 36.43 36.96 37.57 38.42 38.66 38.87 39.16 39.59 40.37 41.12 41.69 41.22 40.15 38.77 37.90 37.53 37.55 37.44 37.08
33.29 33.71 34.35 34.82 35.33 35.97 36.41 36.73 37.46 37.64 38.10 38.59 39.16 39.57 39.52 38.67 37.59 36.30 35.24 35.23 35.33 35.43
32.43 32.48 32.71 32.74 33.32 33.79 34.09 34.58 35.02 35.27 36.10 36.34 37.06 38.12 38.05 37.15 35.73 34.84 32.90 31.76 31.67 32.30
31.95 31.54 31.72 31.83 31.49 31.44 32.15 32.77 32.54 32.99 33.88 34.24 35.17 36.47 35.99 35.19 33.21 32.08 31.14 30.68 30.39 30.63
31.72 30.73 30.38 30.21 29.86 29.51 30.20 30.92 31.21 30.97 31.11 32.91 34.62 35.56 34.74 33.29 31.05 30.00 29.85 29.79 29.37 29.74
30.63 28.44 27.88 27.28 26.90 27.06 27.09 29.08 28.96 29.49 29.19 29.77 32.30 35.04 33.98 31.72 30.11 28.65 28.05 29.05 29.32 29.48
28.26 27.66 26.55 26.73 26.67 27.12 27.33 27.88 27.94 27.95 27.75 28.48 29.74 34.07 33.72 31.45 29.65 28.29 27.76 27.82 28.79 31.06
27.29 27.20 26.68 26.74 26.73 26.70 26.30 25.86 24.56 25.70 26.18 26.89 28.18 31.09 33.24 32.62 29.03 28.38 27.20 26.65 26.43 27.95
MSLP
1023.24 1022.79 1022.45 1022.15 1021.63 1020.94 1020.60 1019.98 1019.66 1019.20 1018.93 1019.18 1019.26 1019.60 1019.72 1020.34 1020.73 1020.96 1021.29 1021.57 1021.81 1022.05
1023.44 1023.00 1022.50 1022.06 1021.62 1021.18 1020.38 1019.77 1019.28 1019.12 1018.70 1018.81 1019.04 1019.20 1019.36 1019.86 1020.20 1020.40 1020.79 1021.15 1021.43 1021.75
1023.46 1022.95 1022.31 1021.76 1021.33 1020.71 1020.16 1019.42 1019.13 1018.94 1018.65 1018.74 1018.93 1019.01 1019.31 1019.63 1019.96 1020.36 1020.54 1020.90 1021.17 1021.57
1023.35 1022.95 1022.51 1022.00 1021.59 1020.96 1020.40 1019.85 1019.54 1019.28 1019.23 1019.35 1019.56 1019.50 1019.82 1020.06 1020.27 1020.75 1021.38 1021.55 1021.91 1022.43
1023.72 1023.23 1022.79 1022.44 1021.92 1021.39 1020.94 1020.59 1020.33 1020.24 1020.05 1020.38 1020.59 1020.44 1020.88 1020.95 1021.35 1021.78 1022.21 1022.55 1022.76 1023.22
1023.94 1023.49 1023.07 1022.79 1022.39 1021.86 1021.56 1021.41 1021.16 1021.11 1021.05 1021.33 1021.38 1021.57 1021.68 1022.15 1022.48 1022.83 1023.28 1023.52 1023.81 1024.09
1024.43 1024.17 1023.79 1023.32 1022.94 1022.66 1022.52 1022.18 1021.97 1021.65 1022.01 1021.92 1022.13 1022.32 1022.72 1022.84 1023.39 1023.97 1024.24 1024.05 1024.88 1025.12
1025.01 1024.74 1024.36 1023.96 1023.70 1023.54 1023.25 1023.04 1022.97 1022.86 1023.05 1022.82 1022.81 1022.99 1023.25 1023.51 1023.61 1024.18 1024.90 1025.52 1025.84 1025.83
1025.47 1025.19 1025.01 1024.84 1024.57 1024.36 1024.25 1024.11 1024.05 1024.07 1023.86 1023.86 1023.88 1023.86 1024.04 1023.81 1024.39 1025.15 1025.83 1026.52 1026.52 1026.49
1026.17 1025.95 1025.82 1025.70 1025.56 1025.61 1025.59 1025.54 1025.44 1025.29 1025.06 1024.98 1024.92 1024.95 1024.66 1024.88 1025.30 1025.92 1026.62 1026.85 1027.12 1027.39
1026.60 1026.53 1026.54 1026.42 1026.48 1026.54 1026.45 1026.24 1026.11 1026.10 1026.02 1025.84 1025.75 1025.82 1025.81 1025.91 1026.47 1026.54 1027.33 1027.85 1028.10 1027.98
1026.94 1026.95 1027.04 1026.92 1027.12 1027.07 1026.95 1027.01 1026.91 1026.82 1026.74 1026.52 1026.28 1026.43 1026.46 1026.62 1027.11 1027.01 1028.09 1028.49 1028.49 1028.19
1027.23 1027.32 1027.36 1027.37 1027.57 1027.60 1027.60 1027.87 1027.91 1027.69 1027.56 1027.36 1026.92 1026.85 1026.78 1026.96 1027.32 1027.85 1028.46 1028.60 1028.89 1028.51
1027.43 1027.50 1027.55 1027.69 1027.87 1028.01 1028.15 1028.40 1028.53 1028.32 1028.34 1027.90 1027.77 1027.28 1027.29 1027.35 1027.66 1028.36 1028.81 1029.27 1029.36 1029.16
Wind_Speed
7 3 4 6 6 5 5 4 6 6 8 10 9 9 8 6 7 6 7 9 8 5
8 7 6 7 5 5 6 5 6 7 8 7 6 6 6 6 7 8 8 8 7 5
7 7 7 6 7 6 7 6 5 7 5 4 5 4 6 5 4 5 3 3 4 1
8 8 7 6 7 7 6 7 7 6 7 7 6 6 4 6 6 8 8 8 8 8
8 8 7 7 7 6 6 7 7 7 10 9 8 9 9 8 8 9 9 8 8 7
8 8 8 8 7 7 7 7 8 9 10 9 9 9 10 10 10 11 10 9 9 8
9 9 8 8 8 8 7 8 8 11 9 9 9 10 8 11 10 10 10 11 9 8
8 8 9 9 9 9 9 8 8 9 8 9 8 6 9 9 11 11 11 10 9 9
7 8 9 9 10 10 10 10 9 9 9 9 7 13 12 12 11 11 9 7 6 7
5 5 6 6 8 8 8 8 9 9 9 9 9 14 17 14 9 10 7 6 6 5
4 5 5 7 7 7 5 6 6 7 7 9 9 14 16 15 9 11 9 7 5 5
4 4 3 6 5 4 5 6 7 6 6 6 8 12 13 11 8 11 9 6 5 5
4 4 5 5 5 3 5 5 3 6 5 6 8 12 12 10 5 8 6 6 5 13
4 4 5 5 4 4 4 5 4 6 3 6 5 9 12 12 6 4 5 4 4 3
Wind_Direction
330 312 314 316 318 309 277 276 277 277 211 216 209 207 203 204 212 202 211 213 219 215
337 334 318 305 293 290 298 286 280 294 213 208 202 198 210 209 220 210 215 215 210 206
343 340 329 313 313 324 311 285 281 280 212 194 207 196 214 203 193 205 195 209 198 94
354 352 351 351 345 342 3 10 35 50 55 59 50 36 77 62 71 81 74 63 81 69
5 2 10 10 6 11 38 40 50 48 69 60 49 57 63 71 78 80 75 70 74 73
15 11 16 18 21 31 49 56 63 66 65 65 59 63 73 65 73 72 76 68 66 56
14 12 14 20 27 33 37 55 62 68 68 72 70 76 76 91 89 87 76 68 66 61
18 19 21 27 28 33 39 50 57 71 68 76 76 86 95 100 88 86 81 73 74 67
25 33 34 34 33 37 36 42 45 52 63 62 65 82 92 95 98 95 93 96 80 70
23 38 44 45 50 43 49 51 54 53 58 63 69 76 83 84 88 88 78 69 70 75
45 60 59 60 57 53 43 54 65 61 63 75 76 84 87 86 85 86 70 62 64 75
42 66 68 74 65 55 50 49 49 52 50 68 73 88 99 98 93 85 74 68 53 58
64 79 78 83 71 54 59 53 48 60 38 52 71 84 92 88 92 92 94 60 42 70
82 102 98 92 93 92 79 70 38 66 21 54 51 75 91 96 77 93 92 83 58 45